Index of /search/query_grid

[ICO]NameLast modifiedSizeDescription

[DIR]Parent Directory  -
[TXT]NMR_param_grid.html22-Dec-2017 23:34 4.3K
[   ]getQueryGrids.sh11-Oct-2005 17:17 12K
[TXT]initial_grid.html22-Dec-2017 23:34 5.2K
[TXT]initial_grid_fig.html22-Dec-2017 23:34 5.1K
[TXT]kinetic_grid.html22-Dec-2017 23:34 2.6K
[TXT]query_1_1.html22-Dec-2017 23:34 1.5K
[TXT]query_1_1_1.html22-Dec-2017 23:34 4.2M
[TXT]query_1_1_2.html22-Dec-2017 23:34 4.2M
[TXT]query_1_1_3.html22-Dec-2017 23:34 4.2M
[TXT]query_1_1_4.html22-Dec-2017 23:34 4.2M
[TXT]query_1_2.html22-Dec-2017 23:34 3.9K
[TXT]query_1_2_0.html22-Dec-2017 23:34 1.5K
[TXT]query_1_2_0_1.html22-Dec-2017 23:34 4.0M
[TXT]query_1_2_0_2.html22-Dec-2017 23:34 4.0M
[TXT]query_1_2_0_3.html22-Dec-2017 23:34 4.0M
[TXT]query_1_2_0_5.html26-May-2011 22:35 16K
[TXT]query_1_2_2.html24-Aug-2016 23:46 1.5K
[TXT]query_1_2_2_2.html24-Aug-2016 23:46 2.1K
[TXT]query_1_2_2_3.html24-Aug-2016 23:46 2.1K
[TXT]query_1_2_2_4.html24-Aug-2016 23:46 2.1K
[TXT]query_1_2_2_5.html24-Aug-2016 23:46 2.1K
[TXT]query_1_2_3.html22-Dec-2017 23:34 1.5K
[TXT]query_1_2_3_2.html22-Dec-2017 23:34 303K
[TXT]query_1_2_3_3.html22-Dec-2017 23:34 303K
[TXT]query_1_2_3_4.html22-Dec-2017 23:34 303K
[TXT]query_1_2_3_5.html22-Dec-2017 23:34 303K
[TXT]query_1_2_4.html10-Jul-2017 23:27 22K
[TXT]query_1_2_5.html03-Nov-2017 23:32 29K
[TXT]query_1_2_6.html24-Aug-2016 23:46 4.3K
[TXT]query_1_2_8.html22-Dec-2017 23:34 1.5K
[TXT]query_1_2_8_2.html22-Dec-2017 23:34 3.5M
[TXT]query_1_2_8_3.html22-Dec-2017 23:34 3.5M
[TXT]query_1_2_8_4.html22-Dec-2017 23:34 3.5M
[TXT]query_1_2_8_5.html22-Dec-2017 23:34 3.5M
[TXT]query_1_2_9.html22-Dec-2017 23:34 1.5K
[TXT]query_1_2_9_2.html22-Dec-2017 23:34 2.3M
[TXT]query_1_2_9_3.html22-Dec-2017 23:34 2.3M
[TXT]query_1_2_9_4.html22-Dec-2017 23:34 2.3M
[TXT]query_1_2_9_5.html22-Dec-2017 23:34 2.3M
[TXT]query_1_2_10.html22-Dec-2017 23:34 1.5K
[TXT]query_1_2_10_2.html22-Dec-2017 23:34 383K
[TXT]query_1_2_10_3.html22-Dec-2017 23:34 383K
[TXT]query_1_2_10_4.html22-Dec-2017 23:34 383K
[TXT]query_1_2_10_5.html22-Dec-2017 23:34 383K
[TXT]query_1_2_11_2.html10-Jul-2017 23:27 20K
[TXT]query_1_2_12_2.html03-Nov-2017 23:32 27K
[TXT]query_1_2_13_2.html24-Aug-2016 23:46 4.2K
[TXT]query_1_2_15.html22-Dec-2017 23:34 1.6K
[TXT]query_1_2_15_2.html22-Dec-2017 23:34 2.4M
[TXT]query_1_2_15_3.html22-Dec-2017 23:34 2.4M
[TXT]query_1_2_15_4.html22-Dec-2017 23:34 2.4M
[TXT]query_1_2_15_5.html22-Dec-2017 23:34 2.4M
[TXT]query_1_2_16.html22-Dec-2017 23:34 1.6K
[TXT]query_1_2_16_2.html22-Dec-2017 23:34 1.4M
[TXT]query_1_2_16_3.html22-Dec-2017 23:34 1.4M
[TXT]query_1_2_16_4.html22-Dec-2017 23:34 1.4M
[TXT]query_1_2_16_5.html22-Dec-2017 23:34 1.4M
[TXT]query_1_2_17.html22-Dec-2017 23:34 1.6K
[TXT]query_1_2_17_2.html22-Dec-2017 23:34 184K
[TXT]query_1_2_17_3.html22-Dec-2017 23:34 184K
[TXT]query_1_2_17_4.html22-Dec-2017 23:34 184K
[TXT]query_1_2_17_5.html22-Dec-2017 23:34 184K
[TXT]query_1_2_18_2.html10-Jul-2017 23:27 14K
[TXT]query_1_2_19_2.html26-Jan-2017 23:26 18K
[TXT]query_1_2_20_2.html24-Aug-2016 23:46 3.0K
[TXT]query_1_2_22.html25-Nov-2017 22:55 1.5K
[TXT]query_1_2_22_2.html25-Nov-2017 22:55 2.5M
[TXT]query_1_2_22_3.html25-Nov-2017 22:55 2.5M
[TXT]query_1_2_22_4.html25-Nov-2017 22:55 2.5M
[TXT]query_1_2_22_5.html25-Nov-2017 22:55 2.5M
[TXT]query_1_2_23.html22-Dec-2017 23:34 1.6K
[TXT]query_1_2_23_2.html22-Dec-2017 23:34 1.7M
[TXT]query_1_2_23_3.html22-Dec-2017 23:34 1.7M
[TXT]query_1_2_23_4.html22-Dec-2017 23:34 1.7M
[TXT]query_1_2_23_5.html22-Dec-2017 23:34 1.7M
[TXT]query_1_2_23_7.html22-Dec-2017 23:34 1.7M
[TXT]query_1_2_24.html22-Dec-2017 23:34 1.5K
[TXT]query_1_2_24_2.html22-Dec-2017 23:34 270K
[TXT]query_1_2_24_3.html22-Dec-2017 23:34 270K
[TXT]query_1_2_24_4.html22-Dec-2017 23:34 270K
[TXT]query_1_2_24_5.html22-Dec-2017 23:34 270K
[TXT]query_1_2_25_2.html02-Nov-2016 23:36 13K
[TXT]query_1_2_26_2.html03-Nov-2017 23:32 14K
[TXT]query_1_2_27_2.html24-Aug-2016 23:46 2.7K
[TXT]query_1_2_29.html25-Nov-2017 22:55 1.6K
[TXT]query_1_2_29_2.html25-Nov-2017 22:55 1.7M
[TXT]query_1_2_29_3.html25-Nov-2017 22:55 1.7M
[TXT]query_1_2_29_4.html25-Nov-2017 22:55 1.7M
[TXT]query_1_2_29_5.html25-Nov-2017 22:55 1.7M
[TXT]query_1_2_30.html22-Dec-2017 23:34 1.6K
[TXT]query_1_2_30_2.html22-Dec-2017 23:34 1.1M
[TXT]query_1_2_30_3.html22-Dec-2017 23:34 1.1M
[TXT]query_1_2_30_4.html22-Dec-2017 23:34 1.1M
[TXT]query_1_2_30_5.html22-Dec-2017 23:34 1.1M
[TXT]query_1_2_31.html22-Dec-2017 23:34 1.6K
[TXT]query_1_2_31_2.html22-Dec-2017 23:34 194K
[TXT]query_1_2_31_3.html22-Dec-2017 23:34 194K
[TXT]query_1_2_31_4.html22-Dec-2017 23:34 194K
[TXT]query_1_2_31_5.html22-Dec-2017 23:34 194K
[TXT]query_1_2_32.html02-Nov-2016 23:36 1.6K
[TXT]query_1_2_32_2.html02-Nov-2016 23:36 10K
[TXT]query_1_2_32_3.html02-Nov-2016 23:36 10K
[TXT]query_1_2_32_4.html02-Nov-2016 23:36 10K
[TXT]query_1_2_32_5.html02-Nov-2016 23:36 10K
[TXT]query_1_2_33.html24-Aug-2016 23:46 1.6K
[TXT]query_1_2_33_2.html24-Aug-2016 23:46 13K
[TXT]query_1_2_33_3.html24-Aug-2016 23:46 13K
[TXT]query_1_2_33_4.html24-Aug-2016 23:46 13K
[TXT]query_1_2_33_5.html24-Aug-2016 23:46 13K
[TXT]query_1_3.html22-Dec-2017 23:34 140K
[TXT]query_1_4.html03-Nov-2017 23:32 125K
[TXT]query_1_5.html22-Dec-2017 23:34 1.5K
[TXT]query_1_5_1.html22-Dec-2017 23:34 4.1M
[TXT]query_1_5_2.html22-Dec-2017 23:34 4.1M
[TXT]query_1_5_3.html22-Dec-2017 23:34 4.1M
[TXT]query_1_5_4.html22-Dec-2017 23:34 4.1M
[TXT]query_1_6.html22-Dec-2017 23:34 1.5K
[TXT]query_1_6_2.html22-Dec-2017 23:34 3.9M
[TXT]query_1_6_3.html22-Dec-2017 23:34 3.9M
[TXT]query_1_6_4.html22-Dec-2017 23:34 3.9M
[TXT]query_1_6_5.html22-Dec-2017 23:34 3.9M
[TXT]query_1_7.html02-Dec-2017 23:29 1.6K
[TXT]query_1_7_2.html22-Dec-2017 23:34 121K
[TXT]query_1_7_3.html22-Dec-2017 23:34 121K
[TXT]query_1_7_4.html22-Dec-2017 23:34 121K
[TXT]query_1_7_5.html22-Dec-2017 23:34 121K
[TXT]query_1_7_6.html22-Dec-2017 23:34 121K
[TXT]query_1_8.html24-Oct-2017 23:27 1.5K
[TXT]query_1_8_2.html24-Oct-2017 23:27 107K
[TXT]query_1_8_3.html24-Oct-2017 23:27 107K
[TXT]query_1_8_4.html24-Oct-2017 23:27 107K
[TXT]query_1_8_5.html24-Oct-2017 23:27 107K
[TXT]query_1_9.html22-Dec-2017 23:34 1.5K
[TXT]query_1_9_1.html22-Dec-2017 23:34 3.9M
[TXT]query_1_9_2.html22-Dec-2017 23:34 3.9M
[TXT]query_1_9_3.html22-Dec-2017 23:34 3.9M
[TXT]query_1_9_4.html22-Dec-2017 23:34 3.9M
[TXT]query_1_10.html22-Dec-2017 23:34 1.5K
[TXT]query_1_10_1.html22-Dec-2017 23:34 3.7M
[TXT]query_1_10_2.html22-Dec-2017 23:34 3.7M
[TXT]query_1_10_3.html22-Dec-2017 23:34 3.7M
[TXT]query_1_10_4.html22-Dec-2017 23:34 3.7M
[TXT]query_1_11.html22-Dec-2017 23:34 119K
[TXT]query_1_12.html24-Oct-2017 23:27 107K
[TXT]query_1_13.html22-Dec-2017 23:34 1.5K
[TXT]query_1_13_1.html22-Dec-2017 23:34 2.9M
[TXT]query_1_13_2.html22-Dec-2017 23:34 2.9M
[TXT]query_1_13_3.html22-Dec-2017 23:34 2.9M
[TXT]query_1_13_4.html22-Dec-2017 23:34 2.9M
[TXT]query_1_14.html22-Dec-2017 23:34 1.5K
[TXT]query_1_14_1.html22-Dec-2017 23:34 2.8M
[TXT]query_1_14_2.html22-Dec-2017 23:34 2.8M
[TXT]query_1_14_3.html22-Dec-2017 23:34 2.8M
[TXT]query_1_14_4.html22-Dec-2017 23:34 2.8M
[TXT]query_1_15.html24-Oct-2017 23:27 18K
[TXT]query_1_16.html02-Oct-2017 23:34 68K
[TXT]query_1_17.html22-Dec-2017 23:34 1.5K
[TXT]query_1_17_1.html22-Dec-2017 23:34 3.0M
[TXT]query_1_17_2.html22-Dec-2017 23:34 3.0M
[TXT]query_1_17_3.html22-Dec-2017 23:34 3.0M
[TXT]query_1_17_4.html22-Dec-2017 23:34 3.0M
[TXT]query_1_18.html22-Dec-2017 23:34 1.5K
[TXT]query_1_18_1.html22-Dec-2017 23:34 2.7M
[TXT]query_1_18_2.html22-Dec-2017 23:34 2.7M
[TXT]query_1_18_3.html22-Dec-2017 23:34 2.7M
[TXT]query_1_18_4.html22-Dec-2017 23:34 2.7M
[TXT]query_1_19.html07-Aug-2017 23:41 5.2K
[TXT]query_1_20.html02-Oct-2017 23:34 45K
[TXT]query_1_21.html07-Aug-2017 23:41 50K
[TXT]query_1_22.html24-Aug-2016 23:46 2.5K
[TXT]query_1_23.html10-Apr-2017 23:37 28K
[TXT]query_1_24.html07-Aug-2017 23:41 22K
[TXT]query_1_25.html24-Aug-2016 23:46 7.2K
[TXT]query_1_26.html24-Aug-2016 23:46 2.7K
[TXT]query_1_27.html24-Aug-2016 23:46 2.7K
[TXT]query_1_28.html24-Aug-2016 23:46 2.3K
[TXT]query_1_29.html24-Oct-2017 23:27 100K
[TXT]query_1_30.html24-Oct-2017 23:27 98K
[TXT]query_1_31.html24-Aug-2016 23:46 3.0K
[TXT]query_1_32.html24-Aug-2016 23:46 2.1K
[TXT]query_1_33.html02-Dec-2017 23:29 67K
[TXT]query_1_34.html02-Dec-2017 23:29 66K
[TXT]query_1_37.html02-Dec-2017 23:29 2.1K
[TXT]query_1_38.html02-Dec-2017 23:29 66K
[TXT]query_1_41.html02-Dec-2017 23:29 66K
[TXT]query_1_42.html02-Dec-2017 23:29 66K
[TXT]query_1_45.html10-Jul-2017 23:27 26K
[TXT]query_1_46.html10-Jul-2017 23:27 26K
[TXT]query_1_49.html02-Dec-2017 23:29 6.5K
[TXT]query_1_50.html02-Dec-2017 23:29 6.5K
[TXT]query_1_53.html24-Aug-2016 23:46 4.3K
[TXT]query_1_54.html24-Aug-2016 23:46 4.4K
[TXT]query_1_65.html24-Aug-2016 23:46 1.9K
[TXT]query_1_66.html24-Aug-2016 23:46 2.5K
[TXT]query_1_67.html03-Nov-2017 23:32 38K
[TXT]query_1_68.html03-Nov-2017 23:32 36K
[TXT]structure_grid.html22-Dec-2017 23:34 1.6K
[TXT]thermo_grid.html22-Dec-2017 23:34 1.8K

Apache/2.2.3 (CentOS) Server at www.bmrb.wisc.edu Port 80